Cloud_Cover
0 4 5 0 1 5 0 5 0 0 4 4 5 6 82 100 100 29 100 12 98 13 97 90 32 5 5 5 17 12 5 0 0 0 0 0 0 5 0 0 0 0 0 0 20 50 16 46 12
0 4 5 1 2 4 0 3 5 2 5 5 4 5 42 100 86 96 98 100 100 100 90 100 96 98 19 4 4 23 0 1 0 2 0 0 8 1 3 5 1 0 1 51 60 28 100 65 45
0 4 4 4 1 2 4 2 5 6 5 5 4 1 4 59 100 94 89 98 96 99 100 92 100 100 73 99 8 19 1 1 0 0 5 5 2 0 0 1 4 3 2 4 9 92 12 0 37
0 4 4 2 4 0 5 62 60 5 5 5 3 5 3 5 81 100 100 100 100 49 76 73 94 29 100 73 5 42 13 1 0 0 0 23 5 9 10 21 0 7 3 2 6 6 5 2 43
0 4 3 1 2 3 4 5 5 76 86 80 71 23 5 5 25 86 100 100 100 95 98 99 100 100 100 100 92 19 99 12 5 5 21 44 4 5 5 5 5 5 72 2 5 5 3 0 0
2 1 1 5 7 5 2 0 0 28 24 57 100 83 40 5 6 69 68 98 100 39 20 51 100 100 100 100 100 100 98 100 78 55 96 98 5 3 5 6 5 5 5 5 5 6 15 5 5
3 3 0 2 98 98 52 4 1 1 5 22 36 22 8 5 5 11 69 19 100 98 54 56 100 100 100 100 100 100 100 100 100 30 97 100 99 19 5 5 5 59 5 5 5 4 2 5 5
4 5 3 5 25 100 38 87 46 5 9 11 8 98 84 44 54 7 61 86 100 100 100 100 100 100 100 100 100 100 100 100 100 100 69 100 100 83 82 3 5 5 5 5 5 5 5 0 2
0 0 3 2 5 35 98 28 66 100 89 5 5 6 60 76 62 82 100 100 80 100 100 100 100 100 100 100 100 100 100 100 100 100 100 100 100 94 95 3 66 5 5 5 10 9 5 64 8
0 0 0 0 0 3 6 67 18 19 43 12 5 61 26 11 35 19 93 100 100 94 70 100 100 100 100 100 100 100 100 100 100 100 100 100 100 92 100 77 69 40 26 9 5 5 5 5 25
0 0 0 0 0 0 0 0 10 77 38 9 5 5 93 100 82 92 45 98 100 100 100 98 82 98 100 100 100 100 100 100 100 100 100 100 100 100 100 64 100 15 49 89 19 1 3 49 91
0 0 0 0 0 0 0 0 0 1 2 5 5 58 99 52 100 58 6 88 72 94 100 100 99 64 66 12 72 73 100 100 100 100 100 100 100 96 100 100 100 100 100 100 90 4 14 29 74
5 2 0 0 0 0 0 0 0 0 0 0 2 4 4 5 19 65 54 8 2 4 5 38 86 100 68 18 4 6 20 100 100 100 100 100 100 100 100 100 96 100 100 100 100 18 36 99 100
5 2 0 0 0 0 0 0 0 0 0 0 0 0 0 1 4 1 6 31 77 13 0 1 4 18 100 95 15 5 4 23 98 100 100 100 100 100 100 100 100 100 100 100 100 91 40 29 100
2 4 0 0 0 0 0 0 0 0 0 0 0 0 0 0 0 0 0 0 0 0 9 75 9 2 1 8 8 5 5 5 24 98 100 100 100 100 100 100 100 100 100 100 100 100 83 98 100
5 2 2 0 0 0 0 0 0 0 0 0 0 0 0 0 0 0 0 0 0 0 0 0 3 73 30 3 0 5 5 0 1 18 93 100 100 100 100 100 100 100 100 100 100 94 100 100 100
5 4 3 5 0 0 0 0 0 0 0 0 0 0 0 0 0 0 0 0 0 0 0 0 0 0 13 99 87 9 4 5 4 1 5 84 100 100 100 100 100 100 100 100 99 100 100 100 100
18 6 5 14 0 0 0 0 0 0 0 0 0 0 0 0 0 0 0 0 0 0 0 0 0 0 0 0 1 58 67 6 90 7 51 81 72 100 100 100 100 100 100 100 100 100 100 100 100
85 23 5 0 0 0 0 0 0 0 0 0 0 0 0 0 0 0 0 0 0 0 0 0 0 0 0 0 0 0 0 36 75 87 100 100 100 100 100 100 100 100 100 100 100 100 100 100 100
74 5 1 0 0 0 0 0 0 0 0 0 0 0 0 0 0 0 0 0 0 0 0 0 0 0 0 0 0 0 0 0 5 62 96 100 100 100 100 100 100 100 100 100 100 100 100 100 100
13 5 5 5 1 0 0 0 0 0 0 0 0 0 0 0 0 0 0 0 0 0 0 0 0 2 0 0 0 0 0 0 0 1 6 43 60 100 100 100 100 100 100 100 100 100 100 100 100
11 5 37 12 5 0 0 0 0 0 0 0 0 0 0 0 0 0 0 0 0 0 0 0 0 0 5 5 0 5 5 5 5 5 1 3 5 60 100 100 100 100 100 100 100 100 100 100 100
5 5 5 5 5 5 5 4 0 0 0 0 0 0 0 0 0 0 0 0 1 5 5 5 0 5 5 5 5 5 5 5 5 5 5 5 5 5 5 100 100 100 100 100 100 100 100 100 100
5 5 5 24 5 9 4 1 0 0 0 0 0 0 0 0 0 0 0 2 5 5 5 5 5 5 5 5 5 24 49 35 30 10 7 5 5 5 2 83 100 100 100 100 100 100 100 100 100
13 60 66 28 9 25 5 1 0 0 0 0 0 0 0 0 0 0 4 5 8 5 5 5 5 5 5 5 17 91 100 100 100 99 94 84 9 12 5 7 100 100 100 100 100 100 100 100 100
100 100 100 66 32 5 5 3 0 0 0 0 0 0 0 0 0 5 5 16 5 5 5 5 5 64 72 37 66 87 92 88 100 100 100 95 81 36 5 5 5 99 100 100 100 100 100 100 100
100 100 100 100 97 14 5 0 0 0 0 0 0 0 0 0 4 5 5 5 5 5 5 5 85 96 100 72 100 100 100 100 100 100 100 100 81 10 5 5 5 5 100 100 100 100 100 100 100
100 100 100 100 45 2 3 1 0 0 0 0 0 0 0 0 5 5 28 5 5 5 5 5 80 81 78 92 100 100 100 100 100 100 100 100 100 74 5 8 74 13 3 69 100 100 100 100 100
100 100 100 48 5 3 2 1 0 0 0 0 0 0 0 5 5 28 54 5 5 5 5 5 77 92 100 100 100 100 100 100 100 100 92 100 100 100 90 98 100 31 5 0 11 100 100 100 100
100 100 100 58 5 20 1 1 0 0 0 0 0 0 0 5 5 38 30 5 5 5 6 80 82 100 100 100 100 100 100 100 100 100 100 100 100 100 100 57 12 100 100 90 48 80 100 100 100